Probability
0 0 0 0 0 0 0 0 0 0 0 0 0 0 0 0 0 0 0 0 0 0 0 0 0 0 0 0 0 0 0 0 0 0 0 0 0 0 0 0 0 0 0
0 0 0 0 0 0 0 0 0 0 0 0 0 0 0 0 0 0 0 0 0 0 0 0 0 0 0 0 0 0 0 0 0 0 0 0 0 0 0 0 0 0 0
0 0 0 0 0 0 0 0 0 0 0 0 0 0 0 0 0 0 0 0 0 0 0 0 0 0 0 0 0 0 0 0 0 0 0 0 0 0 0 0 0 0 0
0 0 0 0 0 0 0 0 0 0 0 0 0 0 0 0 0 0 0 0 0 0 0 0 0 0 0 0 0 0 0 0 0 0 0 0 0 0 0 0 0 0 0
0 0 0 0 0 0 0 0 0 0 0 0 0 0 0 0 0 0 0 0 0 0 0 0 0 0 0 0 0 0 0 0 0 0 0 0 0 0 0 0 0 0 0
0 0 0 0 0 0 0 0 0 0 0 0 0 0 0 0 0 0 0 0 0 0 0 0 0 0 0 0 0 0 0 0 0 0 0 0 0 0 0 0 0 0 0
0 0 0 0 0 0 0 0 0 0 0 0 0 0 0 0 0 0 0 0 0 0 0 0 0 0 0 0 0 0 0 0 0 0 0 0 0 0 0 0 0 0 0
0 0 0 0 0 0 0 0 0 0 0 0 0 0 0 0 0 0 0 0 0 0 0 0 0 0 0 0 0 0 0 0 0 0 0 0 0 0 0 0 0 0 0
0 0 0 0 0 0 0 0 0 0 0 0 0 0 0 0 0 0 0 0 0 0 0 0 0 0 0 0 0 0 0 0 0 0 0 0 0 0 0 0 0 0 0
0 0 0 0 0 0 0 0 0 0 0 0 0 0 0 0 0 0 0 0 0 0 0 0 0 0 0 0 0 0 0 0 0 0 0 0 0 0 0 0 0 0 0
0 0 0 0 0 0 0 0 0 0 0 0 0 0 0 0 0 0 0 0 0 0 0 0 0 0 0 0 0 0 0 0 0 0 0 0 0 0 0 0 0 0 0
0 0 0 0 0 0 0 0 0 0 0 0 0 0 0 0 0 0 0 0 0 0 0 0 0 0 0 0 0 0 0 0 0 0 0 0 0 0 0 0 0 0 0
0 0 0 0 0 0 0 0 0 0 0 0 0 0 0 0 0 0 0 0 0 0 0 0 0 0 0 0 0 0 0 0 0 0 0 0 0 0 0 0 0 0 0
0 0 0 0 0 0 0 0 0 0 0 0 0 0 0 0 0 0 0 0 0 0 0 0 0 0 0 0 0 0 0 0 0 0 0 0 0 0 0 0 0 0 0
0 0 0 0 0 0 0 0 0 0 0 0 0 0 0 0 0 0 0 0 0 0 0 0 0 0 0 0 0 0 0 0 0 0 0 0 0 0 0 0 0 0 0
0 0 0 0 0 0 0 0 0 0 0 0 0 0 0 0 0 0 0 0 0 0 0 0 0 0 0 0 0 0 0 0 0 0 0 0 0 0 0 0 0 0 0
0 0 0 0 0 0 0 0 0 0 0 0 0 0 0 0 0 0 0 0 0 0 0 0 0 0 0 0 0 0 0 0 0 0 0 0 0 0 0 0 0 0 0
0 0 0 0 0 0 0 0 0 0 0 0 0 0 0 0 0 0 0 0 0 0 0 0 0 0 0 0 0 0 0 0 0 0 0 0 0 0 0 0 0 0 0
0 0 0 0 0 0 0 0 0 0 0 0 0 0 0 0 0 0 0 0 0 0 0 0 0 0 0 0 0 0 0 0 0 0 0 0 0 0 0 0 0 0 0
0 0 0 0 0 0 0 0 0 0 0 0 0 0 0 0 0 0 0 0 0 0 0 0 0 0 0 0 0 0 0 0 0 0 0 0 0 0 0 0 0 0 0
0 0 0 0 0 0 0 0 0 0 0 0 0 0 0 0 0 0 0 0 0 0 0 0 0 0 0 0 0 0 0 0 0 0 0 0 0 0 0 0 0 0 0
0 0 0 0 0 0 0 0 0 0 0 0 0 0 0 0 0 0 0 0 0 0 0 0 0 0 0 0 0 0 0 0 0 0 0 0 0 0 0 0 0 0 0
0 0 0 0 0 0 0 0 0 0 0 0 0 0 0 0 0 0 0 0 0 0 0 0 0 0 0 0 0 0 0 0 0 0 0 0 0 0 0 0 0 0 0
0 0 0 0 0 0 0 0 0 0 0 0 0 0 0 0 0 0 0 0 0 0 0 0 0 0 0 0 0 0 0 0 0 0 0 0 0 0 0 0 0 0 0
0 0 0 0 0 0 0 0 0 0 0 0 0 0 0 0 0 0 0 0 0 0 0 0 0 0 0 0 0 0 0 0 0 0 0 0 0 0 0 0 0 0 0
0 0 0 0 0 0 0 0 0 0 0 0 0 0 0 0 0 0 0 0 0 0 0 0 0 0 0 0 0 0 0 0 0 0 0 0 0 0 0 0 0 0 0
Wind_Speed
3 2 1 1 3 3 3 3 3 3 4 4 4 4 4 4 3 3 2 2 2 3 3 4 5 5 4 4 5 5 5 5 6 4 2 2 4 5 5 5 5 6 6
2 2 2 2 2 3 2 2 3 4 4 5 4 4 4 4 4 4 3 3 3 3 3 3 4 4 6 5 5 7 6 7 6 6 3 3 5 4 4 5 5 6 5
2 2 2 1 1 2 2 2 3 3 4 4 4 5 5 5 5 5 4 4 3 3 3 4 4 4 5 5 6 6 6 6 6 5 4 3 2 2 2 3 4 4 5
2 2 2 2 1 2 2 2 2 3 3 4 4 5 5 5 5 5 5 5 4 4 4 4 4 4 5 5 5 6 5 6 6 5 4 3 2 2 2 3 3 4 5
1 1 1 1 1 1 2 2 2 3 3 4 4 4 4 4 5 6 6 6 5 4 3 3 3 4 6 4 3 3 4 4 4 4 3 3 3 3 3 3 4 2 3
6 6 5 4 3 2 2 2 2 2 2 2 4 4 4 4 6 8 7 6 6 5 4 3 3 4 4 5 6 6 5 4 4 3 3 3 4 4 3 3 3 3 3
8 8 8 7 7 6 5 5 5 4 3 2 2 2 4 5 8 8 8 6 6 5 5 4 3 3 4 3 5 6 6 8 7 4 3 4 3 4 4 4 4 4 3
8 8 8 8 7 7 7 7 6 5 5 5 5 4 3 4 7 7 6 4 4 5 5 5 4 4 4 4 4 4 4 5 6 5 4 4 3 2 3 3 3 3 2
7 7 7 7 7 7 7 7 6 5 6 5 5 6 5 6 9 6 2 1 2 3 3 4 5 4 6 6 5 5 6 6 7 10 9 7 6 6 5 3 3 2 2
6 5 5 6 6 6 6 6 5 5 5 5 6 7 7 7 12 11 5 2 1 0 1 2 5 5 5 5 6 6 6 5 4 4 6 7 5 6 7 6 4 3 2
4 4 5 5 5 5 5 5 5 5 6 6 6 6 7 9 12 14 10 3 1 0 1 1 2 4 5 5 6 6 7 4 3 3 2 2 2 2 2 2 2 3 3
3 4 4 5 5 4 5 5 5 6 6 7 6 6 5 6 9 11 13 9 5 1 2 2 2 5 6 6 4 6 7 4 2 2 2 1 1 1 0 0 1 1 2
2 3 3 4 4 4 4 5 4 5 5 5 5 6 6 5 6 12 12 11 9 3 2 4 6 6 5 3 3 4 5 4 3 2 2 1 1 1 1 1 1 2 2
1 2 2 3 3 3 3 3 3 4 4 5 5 5 5 5 5 6 5 5 5 4 3 3 3 2 1 2 2 2 3 3 3 2 2 2 1 1 1 1 1 1 2
1 2 2 3 3 3 2 2 2 2 2 3 3 4 5 6 7 11 7 4 4 3 3 1 0 1 1 2 2 3 3 3 3 2 2 2 1 1 1 0 0 0 0
2 1 1 2 2 2 2 2 1 1 4 5 5 5 4 6 11 11 10 10 9 5 1 1 1 1 1 2 2 2 3 3 3 3 3 2 1 0 0 1 1 1 1
3 2 0 1 2 2 2 2 3 3 3 4 6 9 8 10 10 10 10 10 12 8 3 3 3 3 3 3 3 3 3 3 2 3 3 2 1 1 1 1 1 1 2
3 2 2 1 1 1 1 2 2 2 3 4 5 9 11 12 13 13 11 8 7 8 6 5 5 5 5 5 4 4 4 3 3 3 3 3 2 1 1 1 2 2 2
4 2 2 2 1 1 2 2 3 3 3 3 3 5 9 9 10 13 11 7 7 7 7 7 6 6 5 5 5 5 4 4 4 3 3 3 2 1 1 2 2 3 3
3 5 4 2 2 2 2 2 2 3 3 3 4 4 4 5 6 7 7 6 6 6 6 7 7 7 6 6 5 5 5 5 5 4 3 3 2 2 2 3 3 3 3
3 4 5 3 2 2 2 2 2 2 3 3 3 4 5 4 4 5 5 5 5 6 6 6 6 6 6 6 5 6 6 5 4 4 3 3 2 2 2 2 3 3 3
3 3 3 3 2 2 2 2 2 2 2 3 2 3 6 4 4 4 4 5 5 5 5 4 5 5 5 5 5 4 4 4 4 3 4 3 3 2 2 2 3 3 3
4 4 3 2 2 3 3 2 2 2 2 2 2 2 3 3 3 4 4 4 5 5 5 5 4 4 4 4 3 3 3 3 3 3 4 3 3 2 2 2 3 3 4
3 4 4 3 3 2 2 2 2 2 2 2 2 1 2 2 2 3 3 3 4 4 4 4 4 5 6 5 4 3 3 4 4 3 4 3 3 2 3 3 4 5 4
2 3 4 4 3 3 3 3 3 3 2 2 2 1 2 2 2 2 3 3 4 4 5 4 4 4 6 7 6 5 8 9 8 5 4 4 4 5 4 4 4 5 5
3 3 3 3 3 3 3 3 3 3 2 2 2 2 2 2 2 2 2 3 3 3 3 3 5 6 6 5 6 8 9 10 10 10 6 4 5 5 4 4 5 5 5
Wind_Direction
202 179 147 143 161 171 178 184 184 181 179 181 178 171 175 183 188 194 221 220 218 222 216 215 222 210 210 208 204 203 206 203 230 246 235 226 203 210 202 195 203 210 216
176 142 130 136 154 164 175 187 188 189 189 191 186 187 189 186 186 192 211 210 212 225 228 228 234 223 218 212 211 215 213 208 217 236 233 217 220 211 191 190 200 214 215
157 142 148 172 195 205 211 216 208 205 201 199 196 203 205 195 190 196 201 208 216 225 225 227 234 227 227 220 218 218 215 213 213 223 228 202 193 166 162 187 196 212 216
179 167 173 201 225 242 237 228 226 225 221 219 218 220 219 207 195 194 195 202 211 225 231 234 236 228 232 228 225 222 213 209 206 215 216 193 183 167 167 184 204 207 218
66 29 354 347 347 296 279 278 261 241 233 224 226 228 226 220 211 197 194 197 200 212 227 238 243 240 239 232 224 216 207 207 204 211 205 189 187 180 201 193 210 184 215
52 39 24 22 24 6 343 344 336 311 279 240 236 235 235 239 239 219 197 192 192 196 205 217 235 245 249 243 242 227 205 198 203 210 215 218 212 200 179 180 178 169 238
48 41 35 34 33 25 24 29 20 9 3 341 314 283 271 275 277 266 226 192 192 194 195 196 206 217 227 233 251 250 233 225 215 202 216 226 215 200 181 184 192 196 215
40 35 29 30 30 25 29 28 19 16 19 13 6 354 332 323 315 294 275 214 197 194 193 195 201 217 218 214 222 237 240 238 230 225 220 221 209 196 192 198 196 208 218
28 26 22 25 29 27 26 20 15 20 23 20 18 16 10 354 356 344 317 170 179 190 191 196 201 218 236 221 210 231 245 248 241 232 227 225 221 220 219 223 218 217 233
10 14 17 25 31 27 21 17 14 20 21 21 25 22 20 11 10 14 38 91 113 135 180 209 221 231 248 235 205 214 237 246 227 224 230 238 236 242 249 243 232 223 215
2 20 23 23 31 31 30 25 22 25 28 24 19 15 19 17 14 19 27 35 37 329 276 260 257 263 275 272 220 207 225 222 202 204 203 206 212 218 236 241 226 217 216
19 30 24 19 23 27 34 31 30 29 31 21 12 9 8 8 11 11 17 17 14 357 318 309 295 296 294 291 247 222 223 196 159 156 162 168 171 180 181 234 264 255 248
12 18 12 16 20 21 30 29 30 31 30 18 11 7 360 358 2 11 12 10 11 6 329 316 311 303 300 291 258 214 172 151 148 152 161 162 141 112 86 43 20 14 358
313 336 356 8 6 12 24 28 34 30 24 15 8 2 357 355 358 358 356 355 355 354 336 326 340 24 65 85 78 99 119 138 140 142 134 113 92 86 76 44 32 18 8
269 312 347 358 354 356 18 25 21 21 4 354 350 349 350 350 344 343 345 340 329 309 312 308 329 83 87 81 78 84 91 99 95 93 103 97 83 74 44 5 346 295 288
239 279 342 354 350 358 9 12 355 310 328 339 343 346 331 329 332 344 350 352 347 335 338 14 20 67 94 99 100 89 83 88 87 96 100 101 105 97 315 302 271 260 276
213 223 153 26 12 8 26 35 12 348 341 345 353 359 3 0 5 6 6 3 5 18 56 48 40 51 70 78 79 80 80 83 89 96 96 91 84 50 348 327 321 304 294
194 187 153 118 70 46 57 55 41 24 5 349 350 8 20 28 29 26 23 24 23 30 39 43 44 49 57 60 63 70 75 74 71 71 69 61 49 34 7 338 322 303 296
173 162 148 137 118 109 87 66 53 46 38 10 357 1 12 24 33 31 33 39 38 35 36 42 43 46 49 51 53 57 60 59 58 59 53 44 33 24 358 328 313 302 290
171 166 149 135 121 118 100 80 62 51 44 37 29 10 4 33 39 31 33 35 39 41 40 43 43 44 44 46 46 48 51 49 43 40 31 23 13 2 343 332 324 315 303
154 151 139 122 129 142 134 115 93 71 60 56 42 38 56 58 49 39 35 34 36 38 41 44 42 37 35 35 37 38 40 36 28 16 5 355 348 340 331 325 323 320 317
142 135 130 134 135 137 137 134 120 96 81 79 59 45 51 54 46 40 39 40 43 42 39 46 47 40 33 29 26 25 24 17 7 352 339 332 330 336 343 348 349 348 351
142 139 135 136 137 134 126 130 134 125 111 100 89 66 51 46 40 39 40 44 45 40 33 36 39 32 24 21 16 11 1 345 326 315 317 323 338 356 12 14 13 11 12
158 155 152 149 143 139 144 152 156 150 144 136 123 110 98 74 54 46 44 47 51 43 34 31 30 24 20 14 7 4 358 344 320 309 321 341 5 22 33 35 29 21 15
173 164 162 162 158 156 157 163 169 169 163 160 157 150 139 122 95 72 63 63 59 47 34 24 16 14 13 15 13 11 14 23 27 21 19 36 45 47 46 42 37 32 28
180 172 169 167 165 164 168 175 181 179 175 169 164 158 148 136 123 103 90 83 69 48 31 16 13 17 12 7 7 13 23 31 35 39 43 48 49 46 46 46 44 42 38